Theta_e
304 303 300 301 297 299 307 306 312 311 306 300 303 299 298 296 293 293 293 292 291 288 289 289 289 289 288 288 288 287 287 286 284 284 284 284 284 284 284 284 284 284 284 284
299 303 302 305 305 302 304 306 307 308 309 296 298 297 296 296 295 293 291 290 287 288 289 288 288 288 288 287 287 286 285 283 283 282 282 282 282 281 281 282 282 281 281 282
310 307 308 309 306 305 306 286 298 309 302 298 297 297 296 296 294 293 289 288 285 283 288 288 288 287 287 286 285 283 282 281 281 281 281 281 280 280 281 281 280 280 281 281
308 308 308 296 287 286 292 296 295 298 297 296 295 294 294 291 291 288 284 281 280 287 289 288 287 286 285 284 282 281 280 280 280 279 279 279 279 279 279 279 279 279 280 279
307 307 304 299 297 296 298 298 296 296 294 292 292 293 293 291 287 285 282 287 288 287 287 287 285 284 283 281 279 279 279 278 278 278 278 278 278 278 278 278 278 279 279 279
306 306 303 295 296 295 296 299 295 289 289 288 292 293 288 290 289 289 290 290 289 288 286 285 283 281 279 278 278 278 277 277 277 277 277 277 277 278 278 278 278 278 278 278
301 303 300 298 298 296 300 296 291 287 287 282 284 283 282 281 282 288 288 287 287 285 284 282 280 278 277 277 277 276 276 276 277 277 277 277 277 278 278 278 278 278 278 278
293 293 296 295 296 299 292 291 290 287 281 282 281 281 282 280 276 282 283 284 282 281 281 280 277 276 276 275 275 275 276 276 276 276 277 277 277 278 278 278 278 278 278 278
297 298 295 294 296 293 292 290 291 289 284 286 287 285 286 281 275 281 281 280 279 279 277 276 276 275 274 275 275 275 275 275 276 276 277 277 277 277 278 278 278 277 278 278
291 294 294 292 292 291 291 291 287 286 286 287 284 284 283 281 277 278 278 277 277 275 275 275 275 275 274 274 274 274 274 275 275 276 276 277 277 277 277 277 277 278 278 279
290 290 291 291 290 291 290 289 289 288 286 284 282 284 279 278 277 278 277 277 275 274 274 274 274 274 274 274 273 273 274 274 275 275 276 276 277 277 277 278 279 280 280 280
289 288 289 291 291 290 290 288 286 283 283 283 281 277 279 277 277 276 276 274 274 274 273 274 274 274 274 274 273 273 273 274 274 275 275 276 276 277 278 279 279 279 279 280
291 293 292 292 292 288 287 285 284 280 279 275 278 279 278 276 275 276 274 273 273 273 273 273 273 273 274 274 274 274 273 274 274 275 275 276 276 277 277 278 278 278 278 279
287 288 288 286 286 285 283 281 281 278 278 278 277 276 274 273 273 272 272 272 272 272 273 273 273 274 274 274 274 274 274 274 274 275 275 276 277 277 277 277 277 277 277 277
283 283 284 283 282 280 279 278 275 273 272 274 274 273 272 271 271 272 273 272 272 272 272 272 272 274 274 274 274 275 275 274 274 276 276 277 278 278 278 277 276 276 276 276
280 284 284 283 281 279 276 272 275 272 270 272 272 272 272 271 271 272 272 272 271 271 272 272 273 273 274 274 275 274 274 274 275 276 276 277 278 277 277 276 276 276 276 275
280 283 281 278 281 277 274 273 274 273 272 271 271 272 271 271 271 271 271 271 271 271 271 272 272 273 274 275 274 273 274 274 275 276 276 276 277 277 276 276 276 275 275 275
278 282 281 280 278 276 275 274 273 272 272 272 271 271 270 270 269 270 270 270 270 270 271 271 271 273 274 273 273 274 274 274 275 275 275 276 276 276 276 276 275 275 274 275
277 278 277 276 275 275 274 273 272 272 271 271 270 269 269 269 269 269 269 269 269 269 269 270 271 273 272 272 273 273 274 274 275 275 275 276 276 275 275 275 275 274 274 274
274 275 274 273 273 272 272 271 271 271 269 269 269 269 268 268 268 268 268 268 268 268 269 270 271 270 271 270 271 273 274 274 275 275 275 275 275 275 274 274 275 274 274 274
273 273 272 272 271 270 270 269 269 268 268 268 268 268 267 267 267 267 267 267 267 267 270 270 269 270 269 270 272 274 274 274 273 272 272 272 273 274 274 274 274 274 274 274
272 272 271 271 270 269 268 268 268 267 267 267 267 267 266 266 266 266 266 266 266 268 268 269 269 269 271 273 273 271 270 269 269 270 270 272 273 273 274 274 274 274 274 274
271 271 270 270 269 269 268 267 266 266 266 266 266 266 265 265 265 265 265 265 266 266 268 268 268 269 271 271 269 268 267 267 267 269 270 271 272 273 273 274 274 274 274 274
270 269 269 269 268 267 267 266 266 266 265 265 265 265 264 264 264 264 264 264 265 266 267 266 267 268 269 267 266 266 266 266 267 268 269 271 272 273 273 273 274 274 274 275
268 268 268 268 267 267 266 266 266 265 264 265 264 264 264 264 263 263 263 262 264 265 264 264 266 266 265 265 265 266 267 268 268 268 270 272 272 273 273 273 273 274 274 274
266 266 267 266 266 265 265 265 265 264 264 263 263 263 263 263 262 262 262 262 263 263 263 262 263 264 264 265 266 265 266 266 268 269 271 272 272 272 272 272 273 273 274 275
265 266 266 265 265 264 264 265 264 263 263 262 262 263 262 262 262 262 261 261 262 262 262 262 262 262 263 265 263 264 264 264 266 268 268 269 270 270 271 271 272 273 274 275
Wind_Speed
7 6 4 7 6 9 11 11 12 18 10 5 15 10 5 4 6 5 5 5 5 4 6 9 10 7 6 6 8 10 13 16 17 17 18 18 18 19 20 20 20 21 23 24
6 9 11 19 12 11 18 18 16 20 20 4 8 6 3 3 3 4 5 4 4 3 7 7 6 5 6 8 11 12 14 16 16 17 18 18 19 21 22 22 22 23 24 22
20 4 6 14 16 17 15 1 7 14 4 6 5 6 3 3 3 4 5 5 2 2 2 4 5 4 7 8 10 13 14 15 15 15 18 19 21 21 21 22 24 23 22 20
10 1 14 5 2 4 3 2 3 10 7 4 4 4 5 2 3 4 3 2 2 3 3 1 3 5 8 10 12 13 13 14 14 16 18 20 20 21 21 22 22 21 20 24
5 7 11 3 3 3 5 4 1 5 5 3 4 4 3 4 3 4 3 2 3 4 2 2 6 8 10 13 13 14 15 15 17 17 19 19 19 20 20 20 20 20 19 20
2 6 5 1 2 4 1 2 5 4 4 4 5 3 2 5 4 3 1 3 4 2 2 5 8 10 13 14 14 16 16 18 18 18 18 19 19 19 19 19 20 21 20 23
7 8 4 2 3 2 1 3 3 5 4 4 4 4 3 1 3 3 3 4 2 1 5 8 11 13 14 16 17 16 16 17 18 17 17 16 17 18 18 19 20 22 23 24
1 3 10 1 2 3 2 4 5 2 1 2 1 0 2 1 2 5 4 3 2 7 8 10 11 12 13 15 15 17 16 18 18 17 16 14 18 18 18 19 21 23 22 25
4 4 1 1 2 4 6 6 2 3 2 2 2 1 2 2 0 2 2 4 5 6 11 12 10 11 15 16 17 16 17 18 17 17 16 16 17 18 19 20 21 20 18 20
3 2 4 7 4 6 9 6 4 4 5 5 3 3 2 3 1 1 3 5 5 11 14 16 12 13 15 17 16 16 16 16 16 16 18 17 19 18 18 19 20 20 20 21
5 2 1 2 4 5 3 4 4 4 4 4 4 2 4 3 1 4 7 7 11 13 15 16 14 16 14 14 14 14 14 16 17 18 19 20 20 20 19 20 20 23 20 20
5 6 5 9 10 5 8 6 5 4 2 3 4 4 4 2 1 4 6 10 11 12 13 15 16 16 14 10 11 11 14 15 18 17 20 20 19 24 19 16 21 25 22 22
3 1 2 12 10 7 6 6 4 4 3 4 4 4 2 1 3 4 9 10 10 12 15 17 17 18 14 9 10 13 15 18 19 17 17 18 18 17 18 23 23 19 20 20
5 5 2 2 5 4 8 6 6 7 7 6 5 2 0 3 5 7 10 11 11 13 16 15 16 17 12 11 13 14 16 17 19 21 21 21 22 21 17 18 20 21 21 21
1 2 3 9 8 6 4 4 3 3 3 4 4 3 2 4 7 9 9 10 13 13 14 16 16 15 12 14 15 16 19 22 22 22 22 21 21 17 20 19 19 19 21 23
2 5 7 6 6 4 3 1 5 4 4 2 4 3 3 5 7 8 7 9 12 14 15 15 14 14 15 16 17 19 23 22 20 19 21 19 17 17 17 18 17 17 19 20
4 3 0 0 5 4 3 3 3 2 2 6 7 3 4 6 7 8 11 12 15 17 15 12 14 15 13 15 20 24 25 25 21 20 19 18 18 16 19 18 18 18 20 22
3 2 3 3 5 6 6 8 6 3 3 3 6 4 6 7 9 14 17 18 20 20 15 16 17 17 18 18 21 23 24 25 23 21 21 19 17 19 18 17 18 18 22 22
2 3 4 4 5 3 1 1 0 1 1 4 8 8 8 10 13 17 18 20 21 16 19 19 19 20 19 21 22 23 22 25 26 23 23 20 21 23 19 18 19 20 21 21
8 8 8 7 6 6 5 5 4 4 8 9 10 11 11 13 14 15 18 18 18 18 21 22 20 23 22 27 20 22 24 24 21 23 21 19 20 23 22 19 18 19 20 21
9 10 11 10 9 9 8 9 7 8 9 8 9 10 12 14 13 15 14 13 18 19 21 21 23 21 28 24 25 22 21 18 21 23 24 27 26 24 23 21 20 20 20 21
9 6 4 3 3 4 4 4 5 6 7 7 9 11 13 13 14 14 12 15 18 18 21 22 21 25 25 26 22 14 24 29 28 27 24 22 22 22 22 20 20 21 20 22
6 6 3 2 3 2 3 8 9 8 7 10 11 11 12 12 13 14 14 14 21 22 23 20 25 25 27 24 23 30 28 26 23 22 23 22 22 22 20 20 21 19 20 22
7 8 6 3 4 3 5 7 9 7 10 10 9 12 12 13 14 15 17 21 22 22 21 22 24 26 26 26 27 27 26 26 25 24 24 21 22 19 21 19 19 18 18 17
11 11 6 4 5 5 8 8 8 8 9 10 13 12 10 13 16 20 20 23 19 21 23 24 22 22 23 23 25 25 27 29 27 23 22 21 19 18 18 17 17 17 17 19
12 12 4 2 3 5 7 7 7 9 10 13 14 12 12 16 19 19 21 18 20 19 24 24 24 23 23 23 23 23 25 24 22 22 19 18 15 14 15 15 16 17 16 17
11 13 5 4 6 8 10 7 11 9 14 17 16 8 14 19 20 19 18 19 18 22 21 23 23 22 21 21 23 22 23 23 19 19 17 15 14 14 14 15 15 14 14 17
Wind_Direction
250 252 207 221 188 192 201 216 234 268 243 231 195 182 167 137 135 149 145 147 154 162 118 103 92 81 61 29 3 354 343 338 336 329 325 322 321 321 318 316 313 309 306 304
261 248 247 257 238 213 225 241 252 259 272 137 122 118 127 142 150 153 153 177 213 158 110 93 75 48 15 353 338 335 331 328 326 324 321 321 321 319 317 317 317 314 311 306
273 236 275 264 236 226 243 195 235 251 257 134 120 130 132 142 169 166 166 199 184 155 86 100 60 8 342 324 324 327 325 322 319 319 316 316 319 319 319 317 315 314 310 306
284 13 264 301 229 176 147 65 133 104 97 90 122 117 113 106 148 148 145 230 260 342 348 95 5 334 315 321 323 319 313 312 317 319 318 321 322 320 318 315 315 314 307 303
254 243 280 303 203 161 158 182 225 122 123 122 146 112 89 90 109 143 195 240 286 319 330 18 330 317 314 314 316 315 317 319 322 322 319 319 317 315 315 314 313 310 306 301
299 288 277 278 31 39 337 204 160 137 153 150 174 178 235 176 144 168 219 309 301 237 181 305 313 311 310 314 318 320 320 319 318 318 317 315 314 314 315 313 314 313 305 306
265 273 287 22 0 5 78 265 141 139 138 148 143 190 188 120 313 239 125 70 55 190 327 312 316 314 313 316 317 316 316 316 318 318 313 309 309 311 312 312 311 309 309 311
260 325 284 24 356 255 219 82 99 37 171 122 197 50 84 40 16 42 71 48 336 320 308 309 314 308 310 307 317 317 318 316 315 313 309 304 311 311 313 310 307 307 306 305
210 263 158 279 251 99 76 80 87 155 201 153 168 111 102 164 155 48 18 336 303 305 306 311 315 313 309 317 317 317 314 312 311 310 309 305 309 308 303 305 305 298 292 288
41 247 187 176 149 151 167 188 159 179 174 180 155 154 192 177 172 266 308 317 330 321 316 318 325 318 319 319 313 307 304 305 308 311 314 307 306 307 298 294 295 288 285 282
249 303 74 232 179 147 123 118 157 155 154 166 151 177 167 172 231 334 334 331 323 317 315 311 320 318 321 317 306 301 301 306 309 313 314 312 312 307 299 296 295 294 298 302
238 211 189 187 181 206 170 172 167 146 147 112 160 159 149 164 302 303 300 314 314 312 311 315 319 319 326 322 308 304 304 307 309 305 307 305 299 308 308 289 306 306 303 304
253 222 253 168 178 183 157 153 139 151 166 140 133 137 150 210 295 308 307 317 317 313 314 319 322 321 333 328 319 314 307 308 309 304 294 292 294 291 288 305 312 307 308 310
249 124 82 168 172 140 125 133 114 106 121 125 134 139 281 284 296 306 313 321 321 321 320 325 325 321 335 330 324 322 316 311 303 306 304 301 300 291 282 299 304 307 314 315
12 349 159 117 108 96 115 113 91 151 161 150 169 189 215 275 289 309 321 323 321 320 323 328 325 325 332 327 326 325 322 317 314 312 307 302 296 292 297 297 291 295 306 313
17 122 121 120 133 159 150 152 180 204 181 207 245 241 282 283 292 303 316 325 323 320 325 326 322 330 328 328 326 323 320 314 307 300 295 298 293 292 293 294 289 291 300 300
129 200 189 314 191 164 207 241 251 208 195 212 215 223 288 309 308 317 330 331 324 318 321 321 323 326 327 327 327 323 317 313 310 303 300 300 295 288 292 289 283 290 294 304
275 22 145 170 171 187 191 200 202 191 223 266 294 315 333 339 324 324 331 330 326 327 330 331 327 327 325 323 321 319 314 311 309 297 295 296 290 297 294 287 286 288 298 307
93 111 75 57 44 27 355 153 95 330 344 333 318 343 351 342 338 335 336 332 326 323 329 331 326 316 320 322 315 309 305 307 301 294 294 294 299 304 298 288 285 291 297 300
48 51 53 52 48 46 39 19 356 34 14 354 343 356 355 347 341 336 329 316 314 316 319 322 320 320 319 317 313 308 300 295 299 297 294 302 298 294 298 292 289 288 297 305
49 52 47 39 41 40 49 66 44 12 356 354 353 348 339 335 336 333 321 312 317 327 321 317 318 314 316 308 304 305 303 306 308 303 302 300 296 291 294 296 293 295 300 306
64 58 48 68 74 93 96 32 0 340 336 342 341 337 337 333 329 321 311 302 313 322 319 314 316 317 312 312 315 312 313 311 307 301 295 286 288 289 291 294 293 298 300 306
38 18 2 25 34 24 13 -0 351 344 345 343 335 335 329 323 321 318 315 321 320 319 319 320 319 317 316 321 319 320 318 312 303 294 292 288 287 289 292 294 296 294 298 307
23 4 343 356 355 354 352 345 341 341 340 330 328 325 324 320 317 317 311 314 317 318 319 323 321 319 319 324 322 317 308 302 301 298 298 294 292 291 294 294 293 294 301 308
10 349 341 348 353 346 334 329 332 345 334 328 325 326 329 325 313 315 319 322 322 322 324 324 326 325 325 321 319 313 318 304 305 303 299 294 300 302 300 298 295 300 304 307
349 329 323 16 338 322 322 323 347 334 332 324 320 325 321 326 326 328 325 323 321 328 333 330 326 325 327 325 325 330 328 334 320 316 308 306 307 306 306 305 304 308 309 315
336 338 315 352 340 323 309 309 341 316 326 322 302 305 337 339 337 330 329 329 334 338 325 323 326 331 327 327 331 327 330 335 332 335 331 327 320 315 312 311 314 315 319 322